Regional Weather Roundup
Issued by NWS

Home | Current Version | Previous Version | Text Only | Print | Product List | Glossary Off
Versions: 1 2 3 4 5 6 7 8 9 10 11 12 13 14 15 16 17 18 19 20 21 22 23 24 25 26 27 28 29 30 31 32 33 34 35 36 37 38 39 40 41 42 43 44 45 46 47 48 49 50

000
ASUS43 KFSD 291102
RWRSD

WEATHER ROUNDUP FOR SOUTH DAKOTA
NATIONAL WEATHER SERVICE SIOUX FALLS SD
600 AM CDT SAT AUG 29 2015

NOTE: "FAIR" INDICATES FEW OR NO CLOUDS BELOW 12,000 FEET WITH NO
SIGNIFICANT WEATHER AND/OR OBSTRUCTIONS TO VISIBILITY.


SDZ001>005-009-010-012>017-291200-
NORTHWEST AND NORTH CENTRAL SOUTH DAKOTA

CITY           SKY/WX    TMP DP  RH WIND       PRES   REMARKS
FAITH            N/A     68  50  52 W3        30.00S
MOBRIDGE       MOCLDY    63  63 100 S5        29.94R
$$

SDZ012>016-024>037-041>051-057-063-072>074-291200-
SOUTHWEST AND SOUTH CENTRAL SOUTH DAKOTA

CITY           SKY/WX    TMP DP  RH WIND       PRES   REMARKS
RAPID CTY ARPT CLEAR     58  52  80 CALM      30.05S
PIERRE         CLEAR     61  60  97 S3        29.97R
CUSTER         CLEAR     61  42  49 W7        30.22S
ELLSWORTH AFB  CLEAR     63  52  67 W6        30.04S
PHILIP         PTCLDY    59  57  93 W5        30.01S
PINE RIDGE     PTCLDY    52  48  86 CALM      30.09S
WINNER         FAIR      65  60  84 SW12      30.02R
$$

SDZ004>011-016>023-039-040-291200-
NORTHEAST SOUTH DAKOTA

CITY           SKY/WX    TMP DP  RH WIND       PRES   REMARKS
ABERDEEN       CLEAR     61  59  93 S10       29.97S
WATERTOWN      CLEAR     56  55  97 S3        30.02R
BROOKINGS      CLEAR     54  50  87 SE3       30.05S VSB 1
$$

SDZ017-020-022-023-036>040-048>070-291200-
SOUTHEAST SOUTH DAKOTA

CITY           SKY/WX    TMP DP  RH WIND       PRES   REMARKS
SIOUX FALLS    CLEAR     52  50  93 CALM      30.04S
HURON          CLEAR     59  58  96 S8        30.00S
CHAMBERLAIN    CLEAR     60  60 100 SE5       30.02R
MITCHELL       CLEAR     58  57  97 S7        30.03R
YANKTON          N/A     54  52  94 S3        30.04S VSB 1/4
$$

ABBREVIATIONS USED IN REMARKS
   TC - TEMPERATURE IN CELSIUS
  WCI - WIND CHILL INDEX
   HX - HEAT INDEX
  VSB - VISIBILITY



USA.gov is the U.S. government's official web portal to all federal, state and local government web resources and services.